Вернуться в каталог

SES MPOWER-A F1

АктивенСвязьMEO
NORAD 54755·PAYLOAD·🇱🇺 Luxembourg

Запущен Dec 16, 2022 с Cape Canaveral Space Force Station

Loading…

Ближайшие Пролёты (ближайшие 24 часа)

TLE

СвежийSource: CelesTrak SupGP

Эпоха: Sep 13, 2026, 22:59 UTC

1 54755C 22174A   26256.95833333  .00000000  00000+0  00000+0 0  2564
2 54755   0.0431 341.9875 0006935 196.3950 295.7436  5.00114482    11

Отслеживайте SES MPOWER-A F1 в реальном времени с AllMySat

Download on the App Store